GTI8985 KMIA-PAFA

Flight info

Callsign GTI8985
Flight time 8h 9m
Altitude 32000
Route FLMGO2 STYMY Q77 MJAMS/N0497F310 Q77 SHRKS/N0498F300 VXV/N0491F320 J99 IIU J89 MACES BVT DLL CUSAY IRKES KEBMO 55N100W/N0479F340 YSF ZF J519 VQ FIORD FAI
Aircraft B77L/H-SDE1E2E3FGHIJ2J3J4J5M1RWXY/LB1D1

Departure

Time 2026-04-10 17:14
Airport Miami International Airport (KMIA)

Arrival

Time 2026-04-11 01:24
Airport Fairbanks International Airport (PAFA)
Time Latitude Longitude Altitude Speed Heading
2026-04-10 16:32 25.80601 -80.26974 20 ft 0 kts 358°
2026-04-10 17:00 25.80598 -80.26974 20 ft 2 kts 356°
2026-04-10 17:01 25.80583 -80.26971 20 ft 2 kts 340°
2026-04-10 17:01 25.80569 -80.26964 20 ft 2 kts 328°
2026-04-10 17:01 25.80557 -80.26955 20 ft 2 kts 316°
2026-04-10 17:01 25.80547 -80.26942 19 ft 2 kts 304°
2026-04-10 17:02 25.80539 -80.26927 20 ft 2 kts 292°
2026-04-10 17:02 25.80535 -80.26911 20 ft 2 kts 280°
2026-04-10 17:02 25.80533 -80.26895 20 ft 2 kts 268°
2026-04-10 17:02 25.80535 -80.26879 20 ft 1 kts 265°
2026-04-10 17:03 25.80535 -80.26876 20 ft 0 kts 266°
2026-04-10 17:04 25.80535 -80.26879 19 ft 1 kts 266°
2026-04-10 17:04 25.80533 -80.26909 19 ft 6 kts 267°
2026-04-10 17:05 25.80528 -80.26983 20 ft 12 kts 263°
2026-04-10 17:05 25.80517 -80.27103 20 ft 18 kts 267°
2026-04-10 17:05 25.80515 -80.27140 19 ft 18 kts 267°
2026-04-10 17:06 25.80514 -80.27183 19 ft 17 kts 266°
2026-04-10 17:06 25.80509 -80.27311 19 ft 15 kts 267°
2026-04-10 17:06 25.80504 -80.27423 20 ft 13 kts 268°
2026-04-10 17:06 25.80508 -80.27522 19 ft 12 kts 272°
2026-04-10 17:07 25.80505 -80.27625 20 ft 14 kts 268°
2026-04-10 17:07 25.80503 -80.27660 19 ft 2 kts 268°
2026-04-10 17:07 25.80502 -80.27702 20 ft 8 kts 268°
2026-04-10 17:07 25.80498 -80.27795 19 ft 15 kts 267°
2026-04-10 17:08 25.80492 -80.27943 19 ft 22 kts 268°
2026-04-10 17:08 25.80484 -80.28133 19 ft 25 kts 269°
2026-04-10 17:08 25.80478 -80.28320 20 ft 22 kts 268°
2026-04-10 17:08 25.80470 -80.28482 19 ft 19 kts 267°
2026-04-10 17:09 25.80464 -80.28625 19 ft 17 kts 267°
2026-04-10 17:09 25.80458 -80.28750 19 ft 15 kts 268°
2026-04-10 17:09 25.80453 -80.28869 19 ft 15 kts 267°
2026-04-10 17:09 25.80448 -80.28989 19 ft 16 kts 267°
2026-04-10 17:10 25.80442 -80.29128 19 ft 19 kts 268°
2026-04-10 17:10 25.80434 -80.29294 19 ft 22 kts 268°
2026-04-10 17:10 25.80429 -80.29475 19 ft 23 kts 269°
2026-04-10 17:10 25.80421 -80.29647 19 ft 20 kts 266°
2026-04-10 17:11 25.80416 -80.29793 19 ft 17 kts 267°
2026-04-10 17:11 25.80411 -80.29922 19 ft 15 kts 266°
2026-04-10 17:11 25.80405 -80.30032 19 ft 13 kts 266°
2026-04-10 17:11 25.80393 -80.30125 19 ft 10 kts 237°
2026-04-10 17:12 25.80327 -80.30145 19 ft 10 kts 175°
2026-04-10 17:12 25.80253 -80.30137 19 ft 10 kts 177°
2026-04-10 17:12 25.80172 -80.30134 20 ft 12 kts 179°
2026-04-10 17:12 25.80095 -80.30128 19 ft 9 kts 154°
2026-04-10 17:13 25.80074 -80.30075 19 ft 0 kts 89°
2026-04-10 17:13 25.80077 -80.29991 19 ft 36 kts 88°
2026-04-10 17:13 25.80101 -80.29472 19 ft 98 kts 88°
2026-04-10 17:14 25.80141 -80.28494 20 ft 155 kts 86°
2026-04-10 17:14 25.80199 -80.27129 218 ft 186 kts 84°
2026-04-10 17:14 25.80347 -80.25746 973 ft 183 kts 83°
2026-04-10 17:14 25.80407 -80.24322 1534 ft 191 kts 84°
2026-04-10 17:15 25.80456 -80.22773 1861 ft 210 kts 85°
2026-04-10 17:15 25.80509 -80.21070 2197 ft 231 kts 85°
2026-04-10 17:15 25.80636 -80.19253 2738 ft 241 kts 73°
2026-04-10 17:15 25.81353 -80.17587 3418 ft 244 kts 50°
2026-04-10 17:16 25.82666 -80.16389 4104 ft 250 kts 26°
2026-04-10 17:16 25.84371 -80.15906 4829 ft 256 kts
2026-04-10 17:16 25.86168 -80.15825 5564 ft 260 kts
2026-04-10 17:16 25.87991 -80.15775 6275 ft 263 kts
2026-04-10 17:17 25.89757 -80.15906 6929 ft 267 kts 348°
2026-04-10 17:17 25.91365 -80.16399 7516 ft 271 kts 345°
2026-04-10 17:17 25.93160 -80.17029 8178 ft 274 kts 344°
2026-04-10 17:17 25.95000 -80.17677 8857 ft 277 kts 344°
2026-04-10 17:18 25.96849 -80.18323 9480 ft 280 kts 344°
2026-04-10 17:18 25.98699 -80.19106 10051 ft 285 kts 329°
2026-04-10 17:18 26.00321 -80.20441 10425 ft 299 kts 319°
2026-04-10 17:18 26.01915 -80.22035 10754 ft 314 kts 319°
2026-04-10 17:19 26.03580 -80.23709 11067 ft 330 kts 319°
2026-04-10 17:19 26.05346 -80.25472 11412 ft 346 kts 318°
2026-04-10 17:19 26.07181 -80.27295 11788 ft 360 kts 318°
2026-04-10 17:19 26.09097 -80.29198 12166 ft 375 kts 318°
2026-04-10 17:20 26.11068 -80.31158 12729 ft 382 kts 317°
2026-04-10 17:20 26.13036 -80.33114 13439 ft 385 kts 317°
2026-04-10 17:20 26.15060 -80.35126 14197 ft 387 kts 317°
2026-04-10 17:21 26.19119 -80.39167 15532 ft 395 kts 317°
2026-04-10 17:21 26.21174 -80.41210 16252 ft 397 kts 318°
2026-04-10 17:21 26.23384 -80.43033 16922 ft 401 kts 327°
2026-04-10 17:21 26.25908 -80.44508 17548 ft 406 kts 332°
2026-04-10 17:22 26.28464 -80.45862 18147 ft 410 kts 333°
2026-04-10 17:22 26.31067 -80.47237 18813 ft 412 kts 333°
2026-04-10 17:22 26.33652 -80.48606 19408 ft 416 kts 332°
2026-04-10 17:22 26.36281 -80.50001 20032 ft 419 kts 332°
2026-04-10 17:23 26.38938 -80.51411 20620 ft 422 kts 332°
2026-04-10 17:23 26.41576 -80.52814 21199 ft 424 kts 332°
2026-04-10 17:23 26.44279 -80.54252 21739 ft 428 kts 332°
2026-04-10 17:23 26.46996 -80.55698 22251 ft 432 kts 332°
2026-04-10 17:24 26.49810 -80.56904 22749 ft 438 kts 340°
2026-04-10 17:24 26.52760 -80.57860 23238 ft 442 kts 341°
2026-04-10 17:24 26.55758 -80.58806 23742 ft 445 kts 341°
2026-04-10 17:24 26.58770 -80.59757 24276 ft 447 kts 340°
2026-04-10 17:25 26.61763 -80.60704 24788 ft 450 kts 341°
2026-04-10 17:25 26.64790 -80.61663 25261 ft 453 kts 340°
2026-04-10 17:25 26.67868 -80.62640 25752 ft 455 kts 340°
2026-04-10 17:25 26.70921 -80.63610 26249 ft 458 kts 340°
2026-04-10 17:26 26.74022 -80.64597 26691 ft 462 kts 340°
2026-04-10 17:26 26.77142 -80.65591 27163 ft 465 kts 339°
2026-04-10 17:26 26.80237 -80.66576 27691 ft 466 kts 340°
2026-04-10 17:26 26.83399 -80.67584 28204 ft 469 kts 339°
2026-04-10 17:27 26.86558 -80.68593 28620 ft 473 kts 339°
2026-04-10 17:27 26.89740 -80.69608 29037 ft 477 kts 339°
2026-04-10 17:27 26.92936 -80.70658 29442 ft 479 kts 337°
2026-04-10 17:27 26.96130 -80.71864 29964 ft 480 kts 336°
2026-04-10 17:28 26.99259 -80.73064 30670 ft 476 kts 336°
2026-04-10 17:28 27.02423 -80.74273 31502 ft 470 kts 335°
2026-04-10 17:28 27.05501 -80.75448 32099 ft 468 kts 335°
2026-04-10 17:28 27.08563 -80.76617 32192 ft 469 kts 335°
2026-04-10 17:29 27.14722 -80.78960 32212 ft 465 kts 335°
2026-04-10 17:29 27.20905 -80.81312 32220 ft 466 kts 335°
2026-04-10 17:30 27.27055 -80.83651 32216 ft 466 kts 335°
2026-04-10 17:30 27.33197 -80.85993 32217 ft 466 kts 334°
2026-04-10 17:31 27.39306 -80.88502 32224 ft 465 kts 334°
2026-04-10 17:31 27.45391 -80.91018 32226 ft 464 kts 334°
2026-04-10 17:32 27.51487 -80.93536 32219 ft 465 kts 334°
2026-04-10 17:32 27.57609 -80.96063 32227 ft 466 kts 334°
2026-04-10 17:33 27.63688 -80.98573 32225 ft 466 kts 334°
2026-04-10 17:33 27.69715 -81.01065 32226 ft 466 kts 334°
2026-04-10 17:34 27.75685 -81.03535 32226 ft 468 kts 334°
2026-04-10 17:34 27.81693 -81.06023 32231 ft 466 kts 334°
2026-04-10 17:35 27.87625 -81.08484 32232 ft 469 kts 334°
2026-04-10 17:35 27.93498 -81.10922 32234 ft 467 kts 334°
2026-04-10 17:36 27.99554 -81.13439 32230 ft 468 kts 334°
2026-04-10 17:36 28.05581 -81.15997 32227 ft 466 kts 331°
2026-04-10 17:37 28.11438 -81.19048 32240 ft 466 kts 330°
2026-04-10 17:37 28.17263 -81.22093 32250 ft 464 kts 330°
2026-04-10 17:38 28.23182 -81.25170 32254 ft 466 kts 330°
2026-04-10 17:38 28.29109 -81.28243 32254 ft 466 kts 330°
2026-04-10 17:39 28.35019 -81.31304 32258 ft 467 kts 331°
2026-04-10 17:39 28.40880 -81.34302 32261 ft 468 kts 331°
2026-04-10 17:40 28.46866 -81.37360 32259 ft 468 kts 332°
2026-04-10 17:40 28.52765 -81.40379 32259 ft 467 kts 332°
2026-04-10 17:41 28.58653 -81.43398 32261 ft 468 kts 332°
2026-04-10 17:41 28.64546 -81.46422 32257 ft 469 kts 332°
2026-04-10 17:42 28.70488 -81.49474 32259 ft 469 kts 332°
2026-04-10 17:42 28.76403 -81.52518 32256 ft 471 kts 332°
2026-04-10 17:43 28.82375 -81.55593 32259 ft 469 kts 332°
2026-04-10 17:43 28.88332 -81.58665 32254 ft 472 kts 332°
2026-04-10 17:44 28.94537 -81.60983 32254 ft 477 kts 347°
2026-04-10 17:44 29.01185 -81.61727 32254 ft 481 kts 352°
2026-04-10 17:45 29.07811 -81.62319 32250 ft 481 kts 352°
2026-04-10 17:45 29.14434 -81.62918 32245 ft 481 kts 352°
2026-04-10 17:46 29.21082 -81.63522 32255 ft 481 kts 352°
2026-04-10 17:46 29.27763 -81.64133 32259 ft 482 kts 352°
2026-04-10 17:47 29.34432 -81.64744 32263 ft 481 kts 352°
2026-04-10 17:47 29.41129 -81.65359 32271 ft 480 kts 352°
2026-04-10 17:48 29.47763 -81.65970 32270 ft 481 kts 352°
2026-04-10 17:48 29.54347 -81.66576 32268 ft 479 kts 352°
2026-04-10 17:49 29.60856 -81.67178 32264 ft 481 kts 352°
2026-04-10 17:49 29.67474 -81.67789 32269 ft 481 kts 352°
2026-04-10 17:50 29.74169 -81.68408 32268 ft 481 kts 352°
2026-04-10 17:50 29.80876 -81.69030 32278 ft 481 kts 352°
2026-04-10 17:51 29.87545 -81.69648 32285 ft 481 kts 352°
2026-04-10 17:51 29.94177 -81.70264 32300 ft 478 kts 352°
2026-04-10 17:52 30.00828 -81.70884 32300 ft 482 kts 352°
2026-04-10 17:52 30.07529 -81.71507 32302 ft 480 kts 352°
2026-04-10 17:53 30.14183 -81.72128 32306 ft 481 kts 352°
2026-04-10 17:53 30.20828 -81.72749 32307 ft 481 kts 352°
2026-04-10 17:54 30.27486 -81.73372 32311 ft 480 kts 352°
2026-04-10 17:54 30.34157 -81.73997 32305 ft 480 kts 352°
2026-04-10 17:55 30.40831 -81.74622 32309 ft 480 kts 352°
2026-04-10 17:55 30.47484 -81.75247 32308 ft 479 kts 352°
2026-04-10 17:56 30.54133 -81.75873 32306 ft 480 kts 352°
2026-04-10 17:56 30.60841 -81.76546 32297 ft 478 kts 348°
2026-04-10 17:57 30.67256 -81.78507 32300 ft 475 kts 339°
2026-04-10 17:57 30.73512 -81.80881 32295 ft 472 kts 339°
2026-04-10 17:58 30.79769 -81.83261 32288 ft 474 kts 339°
2026-04-10 17:58 30.86029 -81.85643 32283 ft 473 kts 339°
2026-04-10 17:59 30.92263 -81.88018 32284 ft 474 kts 339°
2026-04-10 17:59 30.98518 -81.90404 32281 ft 473 kts 339°
2026-04-10 18:00 31.04798 -81.92802 32283 ft 474 kts 339°
2026-04-10 18:00 31.11099 -81.95212 32283 ft 474 kts 339°
2026-04-10 18:01 31.17345 -81.97603 32289 ft 473 kts 339°
2026-04-10 18:01 31.23606 -82.00004 32290 ft 472 kts 339°
2026-04-10 18:02 31.29862 -82.02406 32290 ft 473 kts 339°
2026-04-10 18:02 31.36114 -82.04810 32294 ft 473 kts 339°
2026-04-10 18:03 31.42305 -82.07194 32304 ft 472 kts 339°
2026-04-10 18:03 31.48545 -82.09600 32307 ft 473 kts 339°
2026-04-10 18:04 31.54836 -82.12029 32307 ft 473 kts 339°
2026-04-10 18:04 31.61050 -82.14432 32306 ft 472 kts 339°
2026-04-10 18:05 31.67315 -82.16858 32309 ft 472 kts 339°
2026-04-10 18:05 31.73573 -82.19286 32311 ft 472 kts 339°
2026-04-10 18:06 31.79828 -82.21714 32315 ft 472 kts 339°
2026-04-10 18:06 31.86080 -82.24146 32317 ft 472 kts 339°
2026-04-10 18:07 31.92333 -82.26581 32312 ft 471 kts 339°
2026-04-10 18:07 31.98535 -82.28999 32310 ft 472 kts 339°
2026-04-10 18:08 32.04786 -82.31441 32319 ft 470 kts 339°
2026-04-10 18:08 32.11000 -82.33871 32323 ft 469 kts 339°
2026-04-10 18:09 32.20306 -82.37517 32334 ft 469 kts 339°
2026-04-10 18:10 32.26493 -82.39946 32328 ft 469 kts 339°
2026-04-10 18:10 32.32705 -82.42388 32321 ft 470 kts 339°
2026-04-10 18:11 32.38904 -82.44829 32315 ft 470 kts 339°
2026-04-10 18:11 32.45139 -82.47286 32318 ft 468 kts 339°
2026-04-10 18:12 32.51340 -82.49734 32323 ft 469 kts 339°
2026-04-10 18:12 32.57533 -82.52183 32329 ft 468 kts 339°
2026-04-10 18:13 32.63717 -82.54632 32334 ft 467 kts 339°
2026-04-10 18:13 32.69912 -82.57089 32338 ft 469 kts 339°
2026-04-10 18:14 32.76138 -82.59561 32341 ft 467 kts 339°
2026-04-10 18:14 32.82276 -82.62002 32342 ft 467 kts 339°
2026-04-10 18:15 32.88407 -82.64443 32341 ft 468 kts 339°
2026-04-10 18:15 32.94609 -82.66917 32353 ft 466 kts 339°
2026-04-10 18:16 33.00755 -82.69372 32352 ft 466 kts 339°
2026-04-10 18:16 33.06939 -82.71845 32353 ft 467 kts 339°
2026-04-10 18:17 33.13100 -82.74314 32354 ft 468 kts 339°
2026-04-10 18:17 33.19295 -82.76800 32351 ft 467 kts 339°
2026-04-10 18:18 33.25447 -82.79272 32354 ft 466 kts 339°
2026-04-10 18:18 33.31586 -82.81743 32356 ft 466 kts 339°
2026-04-10 18:19 33.37753 -82.84229 32351 ft 465 kts 339°
2026-04-10 18:19 33.43880 -82.86703 32347 ft 467 kts 339°
2026-04-10 18:20 33.50064 -82.89203 32354 ft 467 kts 339°
2026-04-10 18:20 33.56232 -82.91700 32354 ft 467 kts 339°
2026-04-10 18:21 33.62389 -82.94196 32364 ft 466 kts 339°
2026-04-10 18:21 33.68559 -82.96702 32367 ft 466 kts 339°
2026-04-10 18:22 33.74709 -82.99203 32362 ft 465 kts 339°
2026-04-10 18:22 33.80863 -83.01710 32363 ft 467 kts 339°
2026-04-10 18:23 33.87020 -83.04221 32364 ft 466 kts 339°
2026-04-10 18:23 33.93126 -83.06716 32366 ft 467 kts 339°
2026-04-10 18:24 33.99344 -83.09261 32361 ft 466 kts 339°
2026-04-10 18:24 34.05514 -83.11789 32363 ft 468 kts 339°
2026-04-10 18:25 34.11681 -83.14320 32364 ft 466 kts 339°
2026-04-10 18:25 34.17834 -83.16849 32354 ft 467 kts 339°
2026-04-10 18:26 34.23968 -83.19375 32348 ft 466 kts 339°
2026-04-10 18:26 34.30130 -83.21916 32342 ft 467 kts 339°
2026-04-10 18:27 34.36283 -83.24457 32343 ft 467 kts 339°
2026-04-10 18:27 34.42348 -83.26965 32345 ft 466 kts 339°
2026-04-10 18:28 34.48509 -83.29518 32351 ft 466 kts 339°
2026-04-10 18:28 34.54630 -83.32057 32359 ft 466 kts 339°
2026-04-10 18:29 34.60785 -83.34615 32367 ft 466 kts 338°
2026-04-10 18:29 34.66891 -83.37157 32363 ft 466 kts 339°
2026-04-10 18:30 34.73006 -83.39706 32354 ft 467 kts 339°
2026-04-10 18:30 34.79100 -83.42248 32356 ft 467 kts 339°
2026-04-10 18:31 34.85203 -83.44801 32355 ft 466 kts 339°
2026-04-10 18:31 34.91290 -83.47351 32365 ft 465 kts 338°
2026-04-10 18:32 34.97435 -83.49929 32374 ft 467 kts 338°
2026-04-10 18:32 35.03545 -83.52494 32377 ft 467 kts 338°
2026-04-10 18:33 35.09639 -83.55057 32374 ft 467 kts 338°
2026-04-10 18:33 35.15739 -83.57627 32371 ft 466 kts 338°
2026-04-10 18:34 35.21859 -83.60210 32371 ft 467 kts 338°
2026-04-10 18:34 35.27977 -83.62797 32372 ft 466 kts 338°
2026-04-10 18:35 35.34110 -83.65395 32374 ft 467 kts 338°
2026-04-10 18:35 35.40264 -83.68007 32371 ft 467 kts 338°
2026-04-10 18:36 35.46420 -83.70623 32370 ft 467 kts 338°
2026-04-10 18:36 35.52520 -83.73220 32363 ft 466 kts 337°
2026-04-10 18:37 35.58684 -83.75848 32360 ft 467 kts 337°
2026-04-10 18:37 35.64740 -83.78433 32358 ft 467 kts 337°
2026-04-10 18:38 35.70894 -83.81065 32360 ft 467 kts 337°
2026-04-10 18:38 35.76967 -83.83666 32364 ft 467 kts 337°
2026-04-10 18:39 35.83060 -83.86281 32362 ft 467 kts 337°
2026-04-10 18:39 35.89180 -83.88953 32354 ft 465 kts 334°
2026-04-10 18:40 35.94771 -83.92677 32359 ft 462 kts 326°
2026-04-10 18:40 36.00305 -83.96763 32359 ft 460 kts 326°
2026-04-10 18:41 36.05714 -84.00772 32354 ft 460 kts 326°
2026-04-10 18:41 36.11212 -84.04858 32351 ft 461 kts 326°
2026-04-10 18:42 36.16700 -84.08944 32345 ft 460 kts 326°
2026-04-10 18:42 36.22178 -84.13031 32350 ft 461 kts 326°
2026-04-10 18:43 36.27698 -84.17156 32366 ft 461 kts 326°
2026-04-10 18:43 36.33149 -84.21236 32367 ft 460 kts 326°
2026-04-10 18:44 36.38616 -84.25336 32358 ft 460 kts 326°
2026-04-10 18:44 36.44111 -84.29463 32349 ft 461 kts 326°
2026-04-10 18:45 36.49603 -84.33595 32338 ft 462 kts 326°
2026-04-10 18:45 36.55031 -84.37687 32332 ft 462 kts 326°
2026-04-10 18:46 36.60531 -84.41839 32335 ft 462 kts 326°
2026-04-10 18:46 36.66024 -84.45992 32324 ft 461 kts 326°
2026-04-10 18:47 36.71514 -84.50151 32330 ft 462 kts 326°
2026-04-10 18:47 36.76986 -84.54304 32325 ft 462 kts 326°
2026-04-10 18:48 36.82440 -84.58448 32320 ft 462 kts 326°
2026-04-10 18:48 36.87955 -84.62648 32322 ft 463 kts 326°
2026-04-10 18:49 36.93403 -84.66802 32329 ft 462 kts 325°
2026-04-10 18:49 36.98880 -84.70986 32331 ft 461 kts 326°
2026-04-10 18:50 37.04340 -84.75166 32324 ft 461 kts 326°
2026-04-10 18:50 37.09813 -84.79360 32317 ft 462 kts 325°
2026-04-10 18:51 37.15150 -84.83459 32307 ft 462 kts 325°
2026-04-10 18:51 37.20543 -84.87607 32302 ft 460 kts 325°
2026-04-10 18:52 37.26028 -84.91833 32299 ft 461 kts 325°
2026-04-10 18:52 37.31464 -84.96028 32298 ft 458 kts 325°
2026-04-10 18:53 37.36869 -85.00208 32294 ft 458 kts 325°
2026-04-10 18:53 37.42249 -85.04375 32301 ft 460 kts 325°
2026-04-10 18:54 37.47725 -85.08624 32297 ft 459 kts 325°
2026-04-10 18:54 37.53155 -85.12843 32294 ft 459 kts 325°
2026-04-10 18:55 37.58586 -85.17072 32290 ft 458 kts 325°
2026-04-10 18:55 37.64009 -85.21301 32286 ft 459 kts 325°
2026-04-10 18:56 37.69351 -85.25474 32282 ft 458 kts 324°
2026-04-10 18:56 37.74712 -85.29672 32290 ft 459 kts 325°
2026-04-10 18:57 37.80106 -85.33899 32285 ft 457 kts 324°
2026-04-10 18:57 37.85467 -85.38108 32281 ft 457 kts 324°
2026-04-10 18:58 37.90753 -85.42266 32283 ft 456 kts 324°
2026-04-10 18:58 37.96095 -85.46476 32278 ft 455 kts 324°
2026-04-10 18:59 38.01478 -85.50726 32275 ft 455 kts 324°
2026-04-10 18:59 38.06847 -85.54972 32280 ft 458 kts 324°
2026-04-10 19:00 38.12329 -85.58923 32278 ft 455 kts 330°
2026-04-10 19:00 38.18053 -85.62277 32275 ft 460 kts 331°
2026-04-10 19:01 38.23796 -85.65639 32274 ft 456 kts 330°
2026-04-10 19:01 38.29567 -85.69029 32276 ft 458 kts 330°
2026-04-10 19:02 38.35334 -85.72424 32271 ft 456 kts 330°
2026-04-10 19:02 38.41117 -85.75836 32271 ft 459 kts 330°
2026-04-10 19:03 38.46862 -85.79232 32271 ft 457 kts 330°
2026-04-10 19:03 38.52605 -85.82633 32273 ft 458 kts 330°
2026-04-10 19:04 38.58318 -85.86023 32254 ft 456 kts 330°
2026-04-10 19:04 38.64043 -85.89425 32239 ft 456 kts 330°
2026-04-10 19:05 38.69738 -85.92816 32235 ft 455 kts 330°
2026-04-10 19:05 38.75394 -85.96190 32234 ft 454 kts 329°
2026-04-10 19:06 38.80980 -85.99527 32234 ft 455 kts 329°
2026-04-10 19:06 38.85895 -86.02470 32227 ft 455 kts 329°
2026-04-10 19:07 38.92773 -86.06594 32228 ft 456 kts 329°
2026-04-10 19:07 38.98409 -86.09978 32224 ft 453 kts 329°
2026-04-10 19:08 39.04208 -86.13470 32233 ft 455 kts 329°
2026-04-10 19:08 39.09897 -86.16899 32233 ft 452 kts 329°
2026-04-10 19:09 39.15614 -86.20353 32237 ft 451 kts 329°
2026-04-10 19:09 39.21307 -86.23799 32238 ft 455 kts 329°
2026-04-10 19:10 39.27058 -86.27284 32235 ft 451 kts 329°
2026-04-10 19:10 39.32758 -86.30746 32237 ft 453 kts 329°
2026-04-10 19:11 39.38446 -86.34206 32218 ft 450 kts 329°
2026-04-10 19:11 39.44149 -86.37684 32233 ft 453 kts 329°
2026-04-10 19:12 39.49844 -86.41161 32223 ft 452 kts 328°
2026-04-10 19:12 39.55567 -86.44663 32236 ft 455 kts 328°
2026-04-10 19:13 39.61328 -86.48193 32233 ft 453 kts 328°
2026-04-10 19:13 39.66991 -86.51669 32231 ft 452 kts 328°
2026-04-10 19:14 39.72704 -86.55185 32233 ft 454 kts 328°
2026-04-10 19:14 39.78399 -86.58694 32223 ft 451 kts 328°
2026-04-10 19:15 39.84100 -86.62215 32231 ft 454 kts 328°
2026-04-10 19:15 39.89782 -86.65729 32234 ft 452 kts 327°
2026-04-10 19:16 39.95463 -86.69250 32245 ft 453 kts 327°
2026-04-10 19:16 40.01130 -86.72769 32243 ft 452 kts 327°
2026-04-10 19:17 40.09700 -86.78103 32246 ft 452 kts 327°
2026-04-10 19:17 40.15297 -86.81595 32249 ft 452 kts 327°
2026-04-10 19:18 40.20941 -86.85123 32250 ft 453 kts 327°
2026-04-10 19:18 40.26623 -86.88680 32245 ft 452 kts 327°
2026-04-10 19:19 40.32317 -86.92252 32252 ft 452 kts 327°
2026-04-10 19:19 40.37499 -86.95507 32261 ft 450 kts 327°
2026-04-10 19:20 40.42611 -86.98726 32266 ft 449 kts 327°
2026-04-10 19:20 40.48265 -87.02292 32257 ft 450 kts 327°
2026-04-10 19:21 40.53916 -87.05862 32255 ft 450 kts 327°
2026-04-10 19:21 40.59237 -87.10004 32262 ft 443 kts 320°
2026-04-10 19:22 40.64403 -87.14408 32262 ft 440 kts 320°
2026-04-10 19:22 40.69531 -87.18788 32271 ft 441 kts 320°
2026-04-10 19:23 40.74682 -87.23192 32278 ft 439 kts 320°
2026-04-10 19:23 40.79787 -87.27566 32279 ft 439 kts 320°
2026-04-10 19:24 40.84935 -87.31984 32277 ft 440 kts 320°
2026-04-10 19:24 40.90041 -87.36373 32274 ft 436 kts 320°
2026-04-10 19:25 40.95150 -87.40775 32277 ft 438 kts 319°
2026-04-10 19:25 41.00240 -87.45167 32279 ft 438 kts 319°
2026-04-10 19:26 41.05364 -87.49597 32275 ft 436 kts 320°
2026-04-10 19:26 41.10452 -87.54005 32271 ft 437 kts 320°
2026-04-10 19:27 41.15544 -87.58424 32275 ft 436 kts 320°
2026-04-10 19:27 41.20625 -87.62841 32282 ft 437 kts 320°
2026-04-10 19:28 41.25704 -87.67265 32290 ft 434 kts 319°
2026-04-10 19:28 41.30750 -87.71671 32291 ft 436 kts 319°
2026-04-10 19:29 41.35815 -87.76099 32292 ft 435 kts 319°
2026-04-10 19:29 41.40848 -87.80509 32295 ft 435 kts 319°
2026-04-10 19:30 41.45900 -87.84942 32300 ft 435 kts 319°
2026-04-10 19:30 41.50953 -87.89385 32302 ft 433 kts 319°
2026-04-10 19:31 41.55978 -87.93813 32304 ft 434 kts 319°
2026-04-10 19:31 41.61008 -87.98252 32298 ft 431 kts 319°
2026-04-10 19:32 41.66028 -88.02693 32301 ft 433 kts 319°
2026-04-10 19:32 41.71048 -88.07141 32303 ft 433 kts 319°
2026-04-10 19:33 41.76054 -88.11585 32309 ft 430 kts 319°
2026-04-10 19:33 41.81074 -88.16052 32310 ft 434 kts 319°
2026-04-10 19:34 41.86083 -88.20515 32303 ft 431 kts 319°
2026-04-10 19:34 41.91073 -88.24971 32300 ft 431 kts 319°
2026-04-10 19:35 41.96076 -88.29446 32297 ft 431 kts 319°
2026-04-10 19:35 42.01079 -88.33931 32299 ft 431 kts 319°
2026-04-10 19:36 42.06078 -88.38419 32295 ft 429 kts 319°
2026-04-10 19:36 42.11062 -88.42905 32293 ft 432 kts 319°
2026-04-10 19:37 42.16051 -88.47401 32290 ft 430 kts 319°
2026-04-10 19:37 42.21059 -88.51926 32283 ft 430 kts 319°
2026-04-10 19:38 42.26040 -88.56432 32282 ft 430 kts 319°
2026-04-10 19:38 42.30983 -88.60915 32276 ft 430 kts 319°
2026-04-10 19:39 42.35968 -88.65443 32288 ft 429 kts 319°
2026-04-10 19:39 42.40926 -88.69956 32307 ft 430 kts 318°
2026-04-10 19:40 42.45895 -88.74488 32308 ft 429 kts 318°
2026-04-10 19:40 42.50832 -88.78999 32315 ft 428 kts 318°
2026-04-10 19:41 42.55770 -88.83521 32321 ft 429 kts 318°
2026-04-10 19:41 42.60695 -88.88038 32319 ft 428 kts 318°
2026-04-10 19:42 42.65623 -88.92568 32330 ft 430 kts 318°
2026-04-10 19:42 42.70586 -88.97137 32327 ft 428 kts 318°
2026-04-10 19:43 42.75517 -89.01688 32327 ft 429 kts 318°
2026-04-10 19:43 42.80426 -89.06227 32321 ft 430 kts 318°
2026-04-10 19:44 42.85389 -89.10824 32328 ft 428 kts 318°
2026-04-10 19:44 42.90299 -89.15381 32323 ft 429 kts 318°
2026-04-10 19:45 42.95226 -89.19963 32324 ft 428 kts 318°
2026-04-10 19:45 43.00133 -89.24535 32318 ft 428 kts 318°
2026-04-10 19:46 43.05091 -89.29165 32324 ft 430 kts 319°
2026-04-10 19:46 43.09975 -89.33732 32321 ft 426 kts 318°
2026-04-10 19:47 43.14922 -89.38371 32322 ft 428 kts 318°
2026-04-10 19:47 43.19785 -89.42936 32319 ft 424 kts 318°
2026-04-10 19:48 43.24690 -89.47555 32313 ft 427 kts 318°
2026-04-10 19:48 43.29545 -89.52131 32312 ft 423 kts 318°
2026-04-10 19:49 43.34419 -89.56735 32307 ft 423 kts 318°
2026-04-10 19:49 43.39259 -89.61318 32309 ft 423 kts 318°
2026-04-10 19:50 43.44089 -89.65899 32319 ft 422 kts 317°
2026-04-10 19:50 43.48893 -89.70465 32330 ft 420 kts 317°
2026-04-10 19:51 43.53720 -89.75062 32333 ft 420 kts 317°
2026-04-10 19:51 43.58915 -89.78954 32337 ft 430 kts 326°
2026-04-10 19:52 43.64337 -89.82442 32323 ft 429 kts 326°
2026-04-10 19:52 43.69718 -89.85931 32318 ft 429 kts 326°
2026-04-10 19:53 43.75055 -89.89411 32317 ft 429 kts 326°
2026-04-10 19:53 43.80412 -89.92918 32315 ft 428 kts 326°
2026-04-10 19:54 43.85796 -89.96452 32309 ft 425 kts 326°
2026-04-10 19:54 43.91136 -89.99966 32302 ft 427 kts 326°
2026-04-10 19:55 43.96516 -90.03516 32306 ft 427 kts 326°
2026-04-10 19:55 44.01865 -90.07050 32309 ft 425 kts 326°
2026-04-10 19:56 44.07165 -90.10560 32307 ft 422 kts 326°
2026-04-10 19:56 44.12513 -90.14110 32308 ft 424 kts 326°
2026-04-10 19:57 44.17861 -90.17667 32303 ft 424 kts 326°
2026-04-10 19:57 44.23133 -90.21179 32304 ft 423 kts 326°
2026-04-10 19:58 44.28455 -90.24732 32302 ft 422 kts 326°
2026-04-10 19:58 44.33741 -90.28270 32296 ft 423 kts 326°
2026-04-10 19:59 44.39044 -90.31824 32297 ft 420 kts 326°
2026-04-10 19:59 44.44329 -90.35375 32296 ft 420 kts 326°
2026-04-10 20:00 44.49575 -90.38906 32304 ft 420 kts 326°
2026-04-10 20:00 44.54798 -90.42428 32300 ft 417 kts 326°
2026-04-10 20:01 44.60063 -90.45989 32300 ft 420 kts 326°
2026-04-10 20:01 44.65316 -90.49544 32291 ft 416 kts 326°
2026-04-10 20:02 44.70535 -90.53085 32289 ft 417 kts 326°
2026-04-10 20:02 44.75710 -90.56603 32282 ft 414 kts 326°
2026-04-10 20:03 44.80907 -90.60146 32280 ft 416 kts 326°
2026-04-10 20:03 44.86090 -90.63681 32279 ft 411 kts 326°
2026-04-10 20:04 44.91283 -90.67237 32296 ft 415 kts 326°
2026-04-10 20:04 44.96414 -90.70751 32301 ft 410 kts 326°
2026-04-10 20:05 45.01578 -90.74300 32295 ft 412 kts 326°
2026-04-10 20:05 45.06728 -90.77843 32294 ft 411 kts 326°
2026-04-10 20:06 45.11877 -90.81395 32305 ft 413 kts 326°
2026-04-10 20:06 45.17018 -90.84946 32304 ft 410 kts 327°
2026-04-10 20:07 45.24737 -90.90294 32300 ft 413 kts 327°
2026-04-10 20:08 45.29863 -90.93851 32297 ft 409 kts 327°
2026-04-10 20:08 45.34968 -90.97405 32299 ft 411 kts 327°
2026-04-10 20:09 45.40088 -91.00975 32308 ft 412 kts 327°
2026-04-10 20:09 45.45233 -91.04570 32313 ft 410 kts 327°
2026-04-10 20:10 45.50362 -91.08160 32319 ft 409 kts 327°
2026-04-10 20:10 45.55483 -91.11754 32313 ft 412 kts 327°
2026-04-10 20:11 45.60611 -91.15357 32295 ft 408 kts 327°
2026-04-10 20:11 45.65732 -91.18967 32290 ft 413 kts 328°
2026-04-10 20:12 45.70826 -91.22559 32284 ft 407 kts 328°
2026-04-10 20:12 45.75941 -91.26180 32279 ft 412 kts 327°
2026-04-10 20:13 45.81052 -91.29801 32280 ft 408 kts 328°
2026-04-10 20:13 45.86117 -91.33398 32280 ft 409 kts 328°
2026-04-10 20:14 45.91242 -91.37047 32294 ft 411 kts 328°
2026-04-10 20:14 45.96342 -91.40682 32294 ft 407 kts 328°
2026-04-10 20:15 46.01399 -91.44297 32323 ft 410 kts 328°
2026-04-10 20:15 46.06499 -91.47896 32303 ft 407 kts 329°
2026-04-10 20:16 46.11596 -91.51482 32308 ft 409 kts 328°
2026-04-10 20:16 46.16713 -91.55090 32301 ft 406 kts 329°
2026-04-10 20:17 46.21772 -91.58666 32281 ft 407 kts 329°
2026-04-10 20:17 46.26871 -91.62279 32285 ft 408 kts 329°
2026-04-10 20:18 46.31958 -91.65890 32295 ft 406 kts 328°
2026-04-10 20:18 46.37025 -91.69496 32295 ft 406 kts 328°
2026-04-10 20:19 46.42082 -91.73102 32301 ft 406 kts 328°
2026-04-10 20:19 46.47149 -91.76722 32302 ft 405 kts 329°
2026-04-10 20:20 46.52198 -91.80338 32278 ft 406 kts 328°
2026-04-10 20:20 46.57235 -91.83951 32278 ft 404 kts 328°
2026-04-10 20:21 46.62266 -91.87569 32313 ft 405 kts 329°
2026-04-10 20:21 46.67305 -91.91200 32302 ft 402 kts 329°
2026-04-10 20:22 46.72339 -91.94834 32303 ft 404 kts 328°
2026-04-10 20:22 46.77345 -91.98457 32295 ft 403 kts 329°
2026-04-10 20:23 46.82352 -92.02087 32294 ft 401 kts 329°
2026-04-10 20:23 46.87369 -92.05733 32295 ft 404 kts 328°
2026-04-10 20:24 46.92374 -92.09375 32280 ft 399 kts 329°
2026-04-10 20:24 46.97354 -92.13010 32274 ft 402 kts 328°
2026-04-10 20:25 47.02334 -92.16650 32268 ft 399 kts 329°
2026-04-10 20:25 47.07317 -92.20302 32246 ft 401 kts 329°
2026-04-10 20:26 47.12318 -92.23974 32270 ft 401 kts 329°
2026-04-10 20:26 47.17275 -92.27621 32263 ft 400 kts 329°
2026-04-10 20:27 47.22245 -92.31285 32259 ft 400 kts 329°
2026-04-10 20:27 47.27209 -92.34952 32267 ft 398 kts 329°
2026-04-10 20:28 47.32154 -92.38615 32262 ft 401 kts 329°
2026-04-10 20:28 47.37111 -92.42293 32275 ft 399 kts 329°
2026-04-10 20:29 47.42078 -92.45986 32281 ft 398 kts 329°
2026-04-10 20:29 47.47021 -92.49670 32284 ft 400 kts 329°
2026-04-10 20:30 47.51965 -92.53361 32278 ft 398 kts 329°
2026-04-10 20:30 47.56920 -92.57070 32261 ft 401 kts 329°
2026-04-10 20:31 47.61895 -92.60799 32253 ft 398 kts 329°
2026-04-10 20:31 47.66838 -92.64515 32247 ft 399 kts 328°
2026-04-10 20:32 47.71752 -92.68216 32273 ft 398 kts 328°
2026-04-10 20:32 47.76691 -92.71944 32280 ft 398 kts 328°
2026-04-10 20:33 47.81633 -92.75682 32283 ft 398 kts 328°
2026-04-10 20:33 47.86559 -92.79415 32274 ft 397 kts 328°
2026-04-10 20:34 47.91459 -92.83138 32269 ft 397 kts 328°
2026-04-10 20:34 47.96378 -92.86882 32266 ft 396 kts 328°
2026-04-10 20:35 48.01293 -92.90633 32261 ft 397 kts 328°
2026-04-10 20:35 48.06203 -92.94386 32253 ft 397 kts 328°
2026-04-10 20:36 48.11096 -92.98135 32253 ft 396 kts 328°
2026-04-10 20:36 48.16002 -93.01902 32249 ft 397 kts 328°
2026-04-10 20:37 48.20904 -93.05674 32239 ft 396 kts 328°
2026-04-10 20:37 48.25809 -93.09458 32243 ft 398 kts 328°
2026-04-10 20:38 48.30705 -93.13240 32235 ft 395 kts 328°
2026-04-10 20:38 48.35616 -93.17045 32240 ft 397 kts 328°
2026-04-10 20:39 48.40491 -93.20828 32251 ft 395 kts 328°
2026-04-10 20:39 48.45354 -93.24612 32257 ft 396 kts 328°
2026-04-10 20:40 48.50267 -93.28442 32260 ft 395 kts 328°
2026-04-10 20:40 48.55157 -93.32263 32266 ft 395 kts 328°
2026-04-10 20:41 48.60010 -93.36063 32265 ft 396 kts 328°
2026-04-10 20:41 48.64886 -93.39959 32263 ft 395 kts 327°
2026-04-10 20:42 48.69699 -93.43943 32260 ft 397 kts 327°
2026-04-10 20:42 48.74527 -93.47938 32252 ft 395 kts 327°
2026-04-10 20:43 48.79361 -93.51944 32247 ft 395 kts 327°
2026-04-10 20:43 48.84150 -93.55918 32243 ft 394 kts 327°
2026-04-10 20:44 48.88963 -93.59922 32244 ft 396 kts 327°
2026-04-10 20:44 48.93772 -93.63930 32245 ft 395 kts 327°
2026-04-10 20:45 48.98601 -93.67962 32254 ft 393 kts 326°
2026-04-10 20:45 49.03371 -93.71954 32256 ft 393 kts 326°
2026-04-10 20:46 49.08163 -93.75974 32252 ft 393 kts 326°
2026-04-10 20:46 49.12928 -93.79980 32273 ft 393 kts 327°
2026-04-10 20:47 49.17755 -93.84048 32269 ft 394 kts 326°
2026-04-10 20:47 49.22498 -93.88052 32267 ft 392 kts 326°
2026-04-10 20:48 49.27283 -93.92102 32261 ft 392 kts 327°
2026-04-10 20:48 49.32080 -93.96172 32261 ft 394 kts 327°
2026-04-10 20:49 49.36854 -94.00229 32259 ft 393 kts 326°
2026-04-10 20:49 49.41647 -94.04314 32255 ft 394 kts 326°
2026-04-10 20:50 49.46422 -94.08390 32259 ft 393 kts 326°
2026-04-10 20:50 49.51202 -94.12482 32264 ft 393 kts 326°
2026-04-10 20:51 49.55957 -94.16560 32267 ft 393 kts 326°
2026-04-10 20:51 49.60727 -94.20661 32260 ft 391 kts 326°
2026-04-10 20:52 49.65472 -94.24750 32258 ft 393 kts 326°
2026-04-10 20:52 49.70236 -94.28864 32257 ft 393 kts 326°
2026-04-10 20:53 49.74985 -94.32976 32258 ft 392 kts 326°
2026-04-10 20:53 49.79736 -94.37108 32254 ft 391 kts 325°
2026-04-10 20:54 49.84391 -94.41497 32251 ft 392 kts 324°
2026-04-10 20:54 49.89004 -94.45866 32253 ft 392 kts 324°
2026-04-10 20:55 49.93663 -94.50275 32246 ft 389 kts 324°
2026-04-10 20:55 49.98295 -94.54667 32238 ft 390 kts 324°
2026-04-10 20:56 50.02874 -94.59013 32234 ft 389 kts 324°
2026-04-10 20:56 50.07524 -94.63438 32226 ft 390 kts 324°
2026-04-10 20:57 50.12132 -94.67831 32250 ft 390 kts 323°
2026-04-10 20:57 50.16740 -94.72232 32256 ft 388 kts 324°
2026-04-10 20:58 50.21350 -94.76648 32247 ft 390 kts 324°
2026-04-10 20:58 50.25960 -94.81072 32248 ft 389 kts 323°
2026-04-10 20:59 50.30555 -94.85493 32246 ft 389 kts 323°
2026-04-10 20:59 50.35149 -94.89923 32245 ft 389 kts 324°
2026-04-10 21:00 50.39759 -94.94377 32243 ft 389 kts 323°
2026-04-10 21:00 50.44357 -94.98831 32239 ft 390 kts 323°
2026-04-10 21:01 50.48942 -95.03282 32234 ft 387 kts 323°
2026-04-10 21:01 50.53539 -95.07757 32239 ft 388 kts 323°
2026-04-10 21:02 50.58118 -95.12223 32240 ft 389 kts 323°
2026-04-10 21:02 50.62723 -95.16725 32239 ft 389 kts 323°
2026-04-10 21:03 50.67317 -95.21229 32245 ft 390 kts 323°
2026-04-10 21:03 50.71913 -95.25742 32243 ft 389 kts 323°
2026-04-10 21:04 50.76514 -95.30272 32245 ft 388 kts 323°
2026-04-10 21:04 50.81033 -95.34732 32245 ft 390 kts 323°
2026-04-10 21:05 50.85630 -95.39279 32243 ft 389 kts 323°
2026-04-10 21:05 50.90216 -95.43826 32244 ft 390 kts 323°
2026-04-10 21:06 50.94795 -95.48377 32238 ft 388 kts 323°
2026-04-10 21:06 50.99376 -95.52941 32238 ft 389 kts 323°
2026-04-10 21:07 51.03968 -95.57526 32227 ft 388 kts 323°
2026-04-10 21:07 51.08536 -95.62097 32221 ft 388 kts 323°
2026-04-10 21:08 51.13124 -95.66701 32246 ft 387 kts 322°
2026-04-10 21:08 51.17667 -95.71271 32250 ft 391 kts 322°
2026-04-10 21:09 51.22129 -95.75768 32246 ft 388 kts 323°
2026-04-10 21:09 51.26699 -95.80386 32253 ft 389 kts 323°
2026-04-10 21:10 51.31233 -95.84976 32238 ft 388 kts 322°
2026-04-10 21:10 51.35799 -95.89613 32245 ft 388 kts 323°
2026-04-10 21:11 51.40340 -95.94234 32235 ft 387 kts 322°
2026-04-10 21:11 51.44870 -95.98855 32247 ft 387 kts 323°
2026-04-10 21:12 51.49404 -96.03490 32233 ft 387 kts 322°
2026-04-10 21:12 51.53927 -96.08128 32236 ft 388 kts 322°
2026-04-10 21:13 51.58487 -96.12812 32231 ft 389 kts 322°
2026-04-10 21:13 51.63051 -96.17513 32231 ft 388 kts 323°
2026-04-10 21:14 51.67577 -96.22186 32230 ft 388 kts 322°
2026-04-10 21:14 51.72018 -96.26782 32223 ft 388 kts 323°
2026-04-10 21:15 51.78820 -96.33842 32216 ft 387 kts 322°
2026-04-10 21:15 51.83375 -96.38584 32211 ft 387 kts 323°
2026-04-10 21:16 51.87907 -96.43314 32211 ft 387 kts 322°
2026-04-10 21:16 51.92413 -96.48029 32211 ft 387 kts 323°
2026-04-10 21:17 51.96937 -96.52773 32207 ft 387 kts 322°
2026-04-10 21:17 52.01425 -96.57491 32201 ft 386 kts 323°
2026-04-10 21:18 52.05960 -96.62271 32196 ft 388 kts 323°
2026-04-10 21:18 52.10480 -96.67046 32219 ft 386 kts 322°
2026-04-10 21:19 52.14989 -96.71822 32227 ft 387 kts 322°
2026-04-10 21:19 52.19508 -96.76619 32225 ft 385 kts 322°
2026-04-10 21:20 52.23991 -96.81390 32225 ft 386 kts 322°
2026-04-10 21:20 52.28519 -96.86221 32220 ft 387 kts 322°
2026-04-10 21:21 52.32990 -96.91003 32223 ft 387 kts 322°
2026-04-10 21:21 52.37498 -96.95837 32217 ft 385 kts 322°
2026-04-10 21:22 52.41990 -97.00665 32218 ft 387 kts 322°
2026-04-10 21:22 52.46446 -97.05466 32212 ft 385 kts 322°
2026-04-10 21:23 52.50951 -97.10332 32213 ft 385 kts 322°
2026-04-10 21:23 52.55402 -97.15153 32211 ft 386 kts 322°
2026-04-10 21:24 52.59863 -97.19994 32202 ft 382 kts 322°
2026-04-10 21:24 52.64311 -97.24835 32204 ft 386 kts 322°
2026-04-10 21:25 52.68775 -97.29704 32200 ft 383 kts 322°
2026-04-10 21:25 52.73256 -97.34607 32195 ft 385 kts 322°
2026-04-10 21:26 52.77687 -97.39464 32201 ft 384 kts 322°
2026-04-10 21:26 52.82155 -97.44375 32195 ft 384 kts 322°
2026-04-10 21:27 52.86587 -97.49258 32190 ft 383 kts 322°
2026-04-10 21:27 52.91024 -97.54160 32190 ft 385 kts 322°
2026-04-10 21:28 52.94719 -97.58250 32186 ft 382 kts 322°
2026-04-10 21:28 52.99881 -97.63980 32187 ft 383 kts 322°
2026-04-10 21:29 53.04297 -97.68895 32197 ft 381 kts 321°
2026-04-10 21:29 53.08744 -97.73859 32191 ft 385 kts 322°
2026-04-10 21:30 53.13179 -97.78818 32203 ft 383 kts 321°
2026-04-10 21:30 53.17582 -97.83756 32208 ft 384 kts 321°
2026-04-10 21:31 53.22003 -97.88726 32203 ft 382 kts 321°
2026-04-10 21:31 53.25676 -97.92866 32200 ft 384 kts 321°
2026-04-10 21:32 53.30810 -97.98666 32198 ft 383 kts 322°
2026-04-10 21:32 53.35246 -98.03690 32191 ft 382 kts 321°
2026-04-10 21:33 53.38909 -98.07850 32194 ft 384 kts 321°
2026-04-10 21:33 53.44031 -98.13680 32189 ft 383 kts 321°
2026-04-10 21:34 53.48432 -98.18703 32185 ft 382 kts 322°
2026-04-10 21:34 53.52819 -98.23724 32188 ft 382 kts 322°
2026-04-10 21:35 53.57223 -98.28777 32189 ft 382 kts 321°
2026-04-10 21:35 53.61623 -98.33839 32180 ft 382 kts 321°
2026-04-10 21:36 53.65987 -98.38871 32176 ft 380 kts 321°
2026-04-10 21:36 53.70382 -98.43954 32174 ft 384 kts 321°
2026-04-10 21:37 53.74049 -98.48202 32172 ft 382 kts 321°
2026-04-10 21:37 53.79148 -98.54127 32177 ft 384 kts 321°
2026-04-10 21:38 53.83532 -98.59235 32169 ft 382 kts 321°
2026-04-10 21:38 53.87922 -98.64363 32157 ft 382 kts 321°
2026-04-10 21:39 53.92288 -98.69476 32167 ft 382 kts 320°
2026-04-10 21:39 53.96691 -98.74647 32176 ft 383 kts 321°
2026-04-10 21:40 54.01060 -98.79791 32172 ft 381 kts 321°
2026-04-10 21:40 54.05436 -98.84956 32169 ft 383 kts 321°
2026-04-10 21:41 54.09080 -98.89268 32170 ft 383 kts 321°
2026-04-10 21:41 54.14183 -98.95322 32183 ft 381 kts 321°
2026-04-10 21:42 54.17802 -98.99628 32179 ft 384 kts 321°
2026-04-10 21:42 54.22872 -99.05673 32180 ft 382 kts 321°
2026-04-10 21:43 54.27244 -99.10902 32180 ft 382 kts 321°
2026-04-10 21:43 54.30852 -99.15227 32178 ft 383 kts 321°
2026-04-10 21:44 54.35950 -99.21355 32171 ft 382 kts 320°
2026-04-10 21:44 54.40318 -99.26620 32170 ft 382 kts 320°
2026-04-10 21:45 54.44643 -99.31849 32168 ft 384 kts 320°
2026-04-10 21:45 54.49006 -99.37136 32167 ft 383 kts 321°
2026-04-10 21:46 54.53347 -99.42410 32165 ft 383 kts 320°
2026-04-10 21:46 54.57709 -99.47725 32163 ft 383 kts 320°
2026-04-10 21:47 54.62044 -99.53020 32161 ft 381 kts 320°
2026-04-10 21:47 54.65679 -99.57475 32400 ft 392 kts 321°
2026-04-10 21:48 54.68636 -99.61101 33194 ft 388 kts 320°
2026-04-10 21:48 54.70810 -99.63772 33746 ft 384 kts 321°
2026-04-10 21:48 54.72259 -99.65554 34029 ft 383 kts 320°
2026-04-10 21:48 54.75189 -99.69166 34164 ft 387 kts 320°
2026-04-10 21:49 54.79547 -99.74547 34165 ft 386 kts 320°
2026-04-10 21:49 54.83923 -99.79964 34175 ft 384 kts 320°
2026-04-10 21:50 54.88271 -99.85364 34155 ft 385 kts 320°
2026-04-10 21:50 54.91887 -99.89864 34163 ft 384 kts 320°
2026-04-10 21:51 54.96966 -99.96204 34158 ft 386 kts 320°
2026-04-10 21:51 55.01344 -100.01646 34155 ft 384 kts 320°
2026-04-10 21:52 55.05046 -100.06029 34149 ft 387 kts 321°
2026-04-10 21:52 55.10206 -100.12155 34141 ft 387 kts 321°
2026-04-10 21:53 55.14640 -100.17445 34158 ft 385 kts 321°
2026-04-10 21:53 55.19058 -100.22737 34161 ft 386 kts 321°
2026-04-10 21:54 55.23500 -100.28074 34150 ft 387 kts 321°
2026-04-10 21:54 55.27185 -100.32511 34154 ft 387 kts 321°
2026-04-10 21:55 55.32356 -100.38756 34150 ft 385 kts 321°
2026-04-10 21:55 55.36769 -100.44103 34155 ft 388 kts 321°
2026-04-10 21:56 55.40453 -100.48576 34143 ft 388 kts 321°
2026-04-10 21:56 55.44900 -100.53994 34159 ft 387 kts 321°
2026-04-10 21:57 55.50030 -100.60259 34143 ft 385 kts 321°
2026-04-10 21:57 55.54457 -100.65683 34144 ft 388 kts 320°
2026-04-10 21:58 55.58068 -100.70117 34151 ft 387 kts 320°
2026-04-10 21:58 55.63251 -100.76502 34158 ft 386 kts 320°
2026-04-10 21:59 55.67656 -100.81943 34154 ft 388 kts 320°
2026-04-10 21:59 55.72088 -100.87433 34163 ft 387 kts 320°
2026-04-10 22:00 55.75742 -100.91970 34158 ft 385 kts 320°
2026-04-10 22:00 55.80851 -100.98334 34153 ft 386 kts 320°
2026-04-10 22:01 55.85253 -101.03835 34151 ft 385 kts 320°
2026-04-10 22:01 55.89618 -101.09302 34137 ft 385 kts 320°
2026-04-10 22:02 55.93292 -101.13917 34142 ft 386 kts 320°
2026-04-10 22:02 55.98401 -101.20352 34128 ft 385 kts 320°
2026-04-10 22:03 56.02065 -101.24982 34138 ft 387 kts 320°
2026-04-10 22:03 56.07169 -101.31446 34130 ft 387 kts 320°
2026-04-10 22:04 56.10851 -101.36125 34138 ft 388 kts 320°
2026-04-10 22:04 56.15245 -101.41721 34148 ft 388 kts 320°
2026-04-10 22:05 56.19638 -101.47332 34134 ft 388 kts 320°
2026-04-10 22:05 56.24014 -101.52937 34123 ft 388 kts 320°
2026-04-10 22:06 56.28430 -101.58612 34129 ft 391 kts 320°
2026-04-10 22:06 56.32852 -101.64307 34122 ft 389 kts 320°
2026-04-10 22:07 56.37964 -101.70915 34138 ft 388 kts 319°
2026-04-10 22:08 56.43827 -101.78522 34148 ft 391 kts 320°
2026-04-10 22:08 56.48935 -101.85170 34139 ft 389 kts 319°
2026-04-10 22:09 56.53336 -101.90917 34139 ft 388 kts 319°
2026-04-10 22:09 56.56979 -101.95690 34135 ft 389 kts 320°
2026-04-10 22:10 56.61353 -102.01434 34123 ft 388 kts 319°
2026-04-10 22:10 56.65743 -102.07216 34112 ft 390 kts 320°
2026-04-10 22:11 56.70110 -102.12984 34116 ft 392 kts 319°
2026-04-10 22:11 56.74516 -102.18818 34109 ft 390 kts 319°
2026-04-10 22:12 56.78929 -102.24683 34121 ft 394 kts 319°
2026-04-10 22:12 56.84050 -102.31507 34113 ft 392 kts 320°
2026-04-10 22:13 56.87707 -102.36396 34112 ft 392 kts 319°
2026-04-10 22:13 56.92316 -102.42575 34120 ft 392 kts 319°
2026-04-10 22:14 56.95830 -102.47298 34100 ft 392 kts 319°
2026-04-10 22:14 57.00245 -102.53249 34108 ft 393 kts 319°
2026-04-10 22:15 57.04627 -102.59174 34103 ft 393 kts 319°
2026-04-10 22:15 57.09024 -102.65138 34098 ft 396 kts 319°
2026-04-10 22:16 57.13451 -102.71162 34121 ft 391 kts 318°
2026-04-10 22:16 57.17858 -102.77183 34127 ft 397 kts 318°
2026-04-10 22:17 57.22275 -102.83227 34124 ft 394 kts 318°
2026-04-10 22:17 57.26676 -102.89271 34116 ft 396 kts 318°
2026-04-10 22:18 57.31081 -102.95336 34103 ft 397 kts 318°
2026-04-10 22:18 57.35523 -103.01472 34089 ft 398 kts 318°
2026-04-10 22:19 57.39947 -103.07599 34087 ft 397 kts 318°
2026-04-10 22:19 57.44372 -103.13748 34091 ft 401 kts 319°
2026-04-10 22:20 57.48786 -103.19894 34089 ft 398 kts 319°
2026-04-10 22:20 57.53243 -103.26125 34090 ft 403 kts 319°
2026-04-10 22:21 57.57659 -103.32314 34076 ft 401 kts 319°
2026-04-10 22:21 57.62093 -103.38553 34078 ft 400 kts 318°
2026-04-10 22:22 57.66542 -103.44832 34070 ft 401 kts 319°
2026-04-10 22:22 57.70956 -103.51080 34041 ft 399 kts 318°
2026-04-10 22:23 57.75392 -103.57384 34056 ft 403 kts 319°
2026-04-10 22:23 57.79822 -103.63693 34049 ft 401 kts 318°
2026-04-10 22:24 57.84285 -103.70074 34062 ft 402 kts 318°
2026-04-10 22:24 57.88719 -103.76431 34052 ft 401 kts 318°
2026-04-10 22:25 57.93126 -103.82772 34061 ft 402 kts 317°
2026-04-10 22:25 57.97579 -103.89198 34051 ft 403 kts 318°
2026-04-10 22:26 58.02038 -103.95653 34065 ft 403 kts 317°
2026-04-10 22:26 58.06463 -104.02080 34042 ft 403 kts 318°
2026-04-10 22:27 58.10918 -104.08572 34045 ft 403 kts 318°
2026-04-10 22:27 58.15348 -104.15048 34059 ft 404 kts 318°
2026-04-10 22:28 58.19779 -104.21546 34049 ft 405 kts 318°
2026-04-10 22:28 58.24226 -104.28090 34056 ft 405 kts 318°
2026-04-10 22:29 58.28666 -104.34642 34042 ft 404 kts 318°
2026-04-10 22:29 58.33115 -104.41232 34051 ft 405 kts 318°
2026-04-10 22:30 58.37549 -104.47820 34049 ft 406 kts 318°
2026-04-10 22:30 58.42013 -104.54475 34040 ft 406 kts 318°
2026-04-10 22:31 58.46468 -104.61136 34062 ft 408 kts 318°
2026-04-10 22:31 58.50893 -104.67776 34063 ft 407 kts 317°
2026-04-10 22:32 58.55326 -104.74453 34067 ft 408 kts 317°
2026-04-10 22:32 58.59792 -104.81200 34063 ft 408 kts 317°
2026-04-10 22:33 58.64228 -104.87924 34066 ft 406 kts 317°
2026-04-10 22:33 58.68685 -104.94704 34069 ft 409 kts 317°
2026-04-10 22:34 58.73139 -105.01500 34070 ft 409 kts 317°
2026-04-10 22:34 58.77607 -105.08343 34074 ft 410 kts 317°
2026-04-10 22:35 58.82034 -105.15144 34070 ft 411 kts 317°
2026-04-10 22:35 58.86500 -105.22028 34061 ft 410 kts 317°
2026-04-10 22:36 58.90966 -105.28936 34064 ft 411 kts 317°
2026-04-10 22:36 58.95446 -105.35892 34072 ft 413 kts 317°
2026-04-10 22:37 58.99878 -105.42792 34058 ft 411 kts 317°
2026-04-10 22:37 59.04339 -105.49759 34062 ft 412 kts 317°
2026-04-10 22:38 59.08843 -105.56818 34072 ft 414 kts 317°
2026-04-10 22:38 59.13295 -105.63822 34086 ft 414 kts 317°
2026-04-10 22:39 59.17800 -105.70935 34097 ft 414 kts 317°
2026-04-10 22:39 59.22282 -105.78037 34104 ft 416 kts 317°
2026-04-10 22:40 59.26490 -105.85806 34107 ft 412 kts 309°
2026-04-10 22:40 59.30270 -105.94244 34108 ft 414 kts 309°
2026-04-10 22:41 59.34043 -106.02775 34102 ft 413 kts 308°
2026-04-10 22:41 59.37767 -106.11285 34094 ft 414 kts 308°
2026-04-10 22:42 59.41513 -106.19907 34091 ft 414 kts 308°
2026-04-10 22:42 59.45218 -106.28479 34088 ft 413 kts 308°
2026-04-10 22:43 59.48921 -106.37086 34081 ft 413 kts 308°
2026-04-10 22:43 59.52631 -106.45742 34060 ft 414 kts 308°
2026-04-10 22:44 59.56345 -106.54443 34045 ft 414 kts 308°
2026-04-10 22:44 59.60044 -106.63143 34056 ft 415 kts 308°
2026-04-10 22:45 59.63732 -106.71851 34067 ft 413 kts 307°
2026-04-10 22:45 59.67407 -106.80558 34069 ft 413 kts 307°
2026-04-10 22:46 59.71095 -106.89329 34067 ft 414 kts 307°
2026-04-10 22:46 59.74756 -106.98072 34067 ft 416 kts 307°
2026-04-10 22:47 59.78446 -107.06915 34056 ft 415 kts 307°
2026-04-10 22:47 59.82140 -107.15803 34044 ft 417 kts 307°
2026-04-10 22:48 59.85807 -107.24662 34051 ft 417 kts 307°
2026-04-10 22:48 59.89478 -107.33561 34034 ft 416 kts 307°
2026-04-10 22:49 59.93181 -107.42574 34043 ft 418 kts 308°
2026-04-10 22:49 59.96845 -107.51525 34032 ft 418 kts 307°
2026-04-10 22:50 60.00524 -107.60550 34042 ft 419 kts 308°
2026-04-10 22:50 60.04184 -107.69563 34052 ft 419 kts 307°
2026-04-10 22:51 60.07843 -107.78607 34056 ft 419 kts 307°
2026-04-10 22:51 60.11510 -107.87709 34058 ft 420 kts 307°
2026-04-10 22:52 60.15184 -107.96862 34054 ft 420 kts 307°
2026-04-10 22:52 60.18830 -108.05983 34049 ft 419 kts 307°
2026-04-10 22:53 60.22479 -108.15147 34055 ft 420 kts 307°
2026-04-10 22:53 60.26119 -108.24323 34058 ft 420 kts 307°
2026-04-10 22:54 60.29784 -108.33601 34060 ft 421 kts 307°
2026-04-10 22:54 60.33428 -108.42861 34055 ft 420 kts 307°
2026-04-10 22:55 60.37051 -108.52107 34060 ft 423 kts 307°
2026-04-10 22:55 60.40707 -108.61475 34059 ft 423 kts 307°
2026-04-10 22:56 60.44333 -108.70802 34068 ft 423 kts 306°
2026-04-10 22:56 60.47964 -108.80181 34069 ft 423 kts 306°
2026-04-10 22:57 60.51585 -108.89571 34074 ft 424 kts 306°
2026-04-10 22:57 60.55202 -108.98988 34076 ft 424 kts 306°
2026-04-10 22:58 60.58727 -109.08203 34078 ft 425 kts 306°
2026-04-10 22:58 60.62353 -109.17722 34080 ft 423 kts 306°
2026-04-10 22:59 60.65917 -109.27122 34078 ft 422 kts 306°
2026-04-10 22:59 60.69505 -109.36621 34084 ft 423 kts 306°
2026-04-10 23:00 60.73095 -109.46156 34090 ft 424 kts 306°
2026-04-10 23:00 60.76675 -109.55707 34092 ft 425 kts 306°
2026-04-10 23:01 60.80275 -109.65348 34097 ft 425 kts 306°
2026-04-10 23:01 60.83830 -109.74912 34100 ft 425 kts 306°
2026-04-10 23:02 60.87428 -109.84631 34104 ft 426 kts 306°
2026-04-10 23:02 60.90995 -109.94306 34101 ft 426 kts 306°
2026-04-10 23:03 60.94582 -110.04080 34108 ft 427 kts 306°
2026-04-10 23:03 60.98143 -110.13824 34112 ft 428 kts 306°
2026-04-10 23:04 61.01723 -110.23659 34111 ft 428 kts 306°
2026-04-10 23:04 61.04587 -110.31559 34110 ft 428 kts 306°
2026-04-10 23:05 61.06723 -110.37468 34111 ft 428 kts 306°
2026-04-10 23:05 61.10270 -110.47314 34114 ft 428 kts 306°
2026-04-10 23:06 61.13826 -110.57230 34122 ft 429 kts 306°
2026-04-10 23:06 61.17366 -110.67139 34122 ft 428 kts 305°
2026-04-10 23:07 61.20893 -110.77056 34124 ft 429 kts 305°
2026-04-10 23:07 61.24427 -110.87035 34126 ft 429 kts 305°
2026-04-10 23:08 61.27961 -110.97059 34131 ft 430 kts 305°
2026-04-10 23:08 61.31485 -111.07097 34132 ft 429 kts 305°
2026-04-10 23:09 61.35006 -111.17168 34139 ft 431 kts 305°
2026-04-10 23:09 61.40271 -111.32313 34144 ft 430 kts 305°
2026-04-10 23:10 61.43775 -111.42451 34140 ft 431 kts 305°
2026-04-10 23:10 61.47129 -111.52192 34141 ft 431 kts 305°
2026-04-10 23:11 61.48636 -111.56583 34147 ft 431 kts 305°
2026-04-10 23:11 61.52118 -111.66763 34151 ft 431 kts 304°
2026-04-10 23:12 61.55605 -111.77002 34163 ft 433 kts 304°
2026-04-10 23:12 61.59079 -111.87245 34173 ft 433 kts 304°
2026-04-10 23:13 61.62548 -111.97523 34177 ft 434 kts 304°
2026-04-10 23:13 61.66041 -112.07917 34192 ft 434 kts 304°
2026-04-10 23:14 61.69505 -112.18271 34200 ft 434 kts 304°
2026-04-10 23:14 61.72971 -112.28680 34203 ft 435 kts 304°
2026-04-10 23:15 61.76425 -112.39097 34194 ft 435 kts 304°
2026-04-10 23:15 61.79882 -112.49573 34177 ft 437 kts 304°
2026-04-10 23:16 61.83330 -112.60066 34178 ft 435 kts 304°
2026-04-10 23:16 61.86780 -112.70615 34198 ft 435 kts 303°
2026-04-10 23:17 61.90197 -112.81110 34211 ft 435 kts 303°
2026-04-10 23:17 61.93623 -112.91685 34213 ft 436 kts 304°
2026-04-10 23:18 61.97044 -113.02293 34218 ft 435 kts 304°
2026-04-10 23:18 62.00462 -113.12937 34213 ft 436 kts 304°
2026-04-10 23:19 62.03867 -113.23590 34207 ft 437 kts 304°
2026-04-10 23:19 62.07285 -113.34338 34202 ft 439 kts 304°
2026-04-10 23:20 62.10703 -113.45135 34202 ft 438 kts 304°
2026-04-10 23:20 62.14114 -113.55958 34204 ft 439 kts 304°
2026-04-10 23:21 62.17513 -113.66796 34206 ft 439 kts 303°
2026-04-10 23:21 62.20905 -113.77665 34210 ft 439 kts 303°
2026-04-10 23:22 62.24303 -113.88602 34211 ft 440 kts 303°
2026-04-10 23:22 62.27668 -113.99484 34208 ft 440 kts 303°
2026-04-10 23:23 62.31046 -114.10466 34209 ft 440 kts 303°
2026-04-10 23:23 62.34403 -114.21426 34213 ft 439 kts 303°
2026-04-10 23:24 62.37762 -114.32449 34212 ft 440 kts 303°
2026-04-10 23:24 62.41085 -114.43404 34208 ft 441 kts 303°
2026-04-10 23:25 62.44442 -114.54519 34202 ft 441 kts 303°
2026-04-10 23:25 62.47786 -114.65641 34196 ft 441 kts 302°
2026-04-10 23:26 62.51109 -114.76749 34198 ft 442 kts 303°
2026-04-10 23:26 62.54431 -114.87909 34193 ft 442 kts 303°
2026-04-10 23:27 62.57752 -114.99120 34193 ft 443 kts 303°
2026-04-10 23:27 62.61082 -115.10417 34193 ft 442 kts 303°
2026-04-10 23:28 62.64367 -115.21615 34192 ft 442 kts 303°
2026-04-10 23:28 62.67686 -115.32986 34192 ft 442 kts 303°
2026-04-10 23:29 62.70972 -115.44303 34192 ft 443 kts 303°
2026-04-10 23:29 62.74251 -115.55650 34192 ft 443 kts 303°
2026-04-10 23:30 62.77526 -115.67042 34194 ft 444 kts 302°
2026-04-10 23:30 62.80794 -115.78466 34197 ft 445 kts 302°
2026-04-10 23:31 62.84060 -115.89940 34196 ft 445 kts 302°
2026-04-10 23:31 62.87312 -116.01424 34195 ft 446 kts 302°
2026-04-10 23:32 62.90571 -116.12991 34189 ft 444 kts 302°
2026-04-10 23:32 62.93807 -116.24537 34192 ft 444 kts 302°
2026-04-10 23:33 62.97028 -116.36086 34187 ft 446 kts 302°
2026-04-10 23:33 63.00254 -116.47714 34187 ft 446 kts 302°
2026-04-10 23:34 63.03469 -116.59363 34185 ft 448 kts 302°
2026-04-10 23:34 63.06694 -116.71108 34182 ft 447 kts 301°
2026-04-10 23:35 63.09888 -116.82803 34180 ft 447 kts 301°
2026-04-10 23:35 63.13091 -116.94592 34186 ft 447 kts 301°
2026-04-10 23:36 63.16285 -117.06408 34181 ft 447 kts 301°
2026-04-10 23:36 63.19472 -117.18264 34178 ft 449 kts 301°
2026-04-10 23:37 63.22638 -117.30100 34175 ft 449 kts 301°
2026-04-10 23:37 63.25816 -117.42046 34174 ft 449 kts 302°
2026-04-10 23:38 63.28972 -117.53978 34170 ft 449 kts 302°
2026-04-10 23:38 63.32124 -117.65953 34168 ft 448 kts 301°
2026-04-10 23:39 63.35265 -117.77953 34171 ft 450 kts 301°
2026-04-10 23:39 63.38397 -117.89981 34170 ft 450 kts 301°
2026-04-10 23:40 63.41526 -118.02068 34173 ft 450 kts 301°
2026-04-10 23:40 63.44649 -118.14194 34179 ft 450 kts 301°
2026-04-10 23:41 63.47415 -118.24988 34176 ft 450 kts 301°
2026-04-10 23:41 63.50529 -118.37205 34176 ft 457 kts 301°
2026-04-10 23:42 63.53722 -118.49798 34171 ft 474 kts 301°
2026-04-10 23:42 63.56984 -118.62744 34162 ft 478 kts 301°
2026-04-10 23:43 63.60178 -118.75493 34154 ft 477 kts 300°
2026-04-10 23:43 63.63422 -118.88522 34141 ft 477 kts 300°
2026-04-10 23:44 63.66640 -119.01520 34113 ft 477 kts 300°
2026-04-10 23:44 63.69875 -119.14662 34097 ft 477 kts 300°
2026-04-10 23:45 63.73091 -119.27807 34084 ft 479 kts 300°
2026-04-10 23:45 63.76281 -119.40924 34080 ft 479 kts 300°
2026-04-10 23:46 63.79481 -119.54159 34097 ft 479 kts 300°
2026-04-10 23:46 63.82657 -119.67394 34107 ft 480 kts 300°
2026-04-10 23:47 63.85844 -119.80733 34113 ft 481 kts 300°
2026-04-10 23:47 63.89027 -119.94140 34116 ft 482 kts 300°
2026-04-10 23:48 63.92177 -120.07489 34121 ft 483 kts 300°
2026-04-10 23:48 63.95335 -120.20959 34125 ft 484 kts 300°
2026-04-10 23:49 63.98498 -120.34533 34127 ft 483 kts 300°
2026-04-10 23:49 64.01624 -120.48033 34131 ft 483 kts 300°
2026-04-10 23:50 64.04757 -120.61650 34133 ft 483 kts 300°
2026-04-10 23:50 64.07854 -120.75193 34140 ft 483 kts 299°
2026-04-10 23:51 64.10952 -120.88831 34148 ft 484 kts 299°
2026-04-10 23:51 64.14040 -121.02509 34153 ft 484 kts 299°
2026-04-10 23:52 64.17131 -121.16288 34153 ft 485 kts 299°
2026-04-10 23:52 64.20184 -121.29983 34160 ft 485 kts 299°
2026-04-10 23:53 64.23225 -121.43717 34160 ft 484 kts 299°
2026-04-10 23:53 64.26273 -121.57572 34167 ft 484 kts 299°
2026-04-10 23:54 64.29295 -121.71398 34171 ft 485 kts 298°
2026-04-10 23:54 64.32315 -121.85304 34170 ft 485 kts 298°
2026-04-10 23:55 64.35328 -121.99269 34160 ft 486 kts 298°
2026-04-10 23:55 64.38306 -122.13168 34159 ft 486 kts 298°
2026-04-10 23:56 64.41304 -122.27245 34158 ft 486 kts 298°
2026-04-10 23:56 64.44260 -122.41219 34159 ft 486 kts 298°
2026-04-10 23:57 64.47221 -122.55315 34160 ft 487 kts 298°
2026-04-10 23:57 64.50176 -122.69473 34162 ft 488 kts 298°
2026-04-10 23:58 64.53130 -122.83727 34160 ft 487 kts 298°
2026-04-10 23:58 64.56033 -122.97832 34157 ft 486 kts 298°
2026-04-10 23:59 64.58938 -123.12034 34151 ft 487 kts 298°
2026-04-10 23:59 64.61842 -123.26335 34148 ft 488 kts 298°
2026-04-11 00:00 64.64722 -123.40614 34139 ft 488 kts 298°
2026-04-11 00:00 64.67606 -123.55014 34134 ft 488 kts 298°
2026-04-11 00:01 64.70482 -123.69475 34125 ft 489 kts 297°
2026-04-11 00:01 64.73325 -123.83869 34127 ft 489 kts 297°
2026-04-11 00:02 64.76144 -123.98242 34128 ft 489 kts 297°
2026-04-11 00:02 64.78976 -124.12785 34130 ft 488 kts 297°
2026-04-11 00:03 64.81782 -124.27301 34130 ft 488 kts 297°
2026-04-11 00:03 64.84560 -124.41766 34144 ft 489 kts 297°
2026-04-11 00:04 64.87346 -124.56387 34153 ft 489 kts 297°
2026-04-11 00:04 64.90099 -124.70937 34163 ft 490 kts 296°
2026-04-11 00:05 64.92848 -124.85570 34169 ft 490 kts 296°
2026-04-11 00:05 64.95591 -125.00276 34173 ft 490 kts 296°
2026-04-11 00:06 64.98295 -125.14879 34177 ft 490 kts 296°
2026-04-11 00:07 65.00834 -125.28689 34179 ft 490 kts 297°
2026-04-11 00:07 65.03541 -125.43519 34170 ft 489 kts 297°
2026-04-11 00:08 65.06222 -125.58315 34157 ft 489 kts 297°
2026-04-11 00:08 65.08894 -125.73176 34127 ft 489 kts 296°
2026-04-11 00:09 65.11537 -125.87990 34123 ft 488 kts 296°
2026-04-11 00:09 65.14181 -126.02912 34123 ft 489 kts 296°
2026-04-11 00:10 65.16805 -126.17840 34088 ft 489 kts 296°
2026-04-11 00:10 65.19412 -126.32791 34071 ft 489 kts 296°
2026-04-11 00:11 65.23280 -126.55186 34138 ft 489 kts 296°
2026-04-11 00:12 65.25372 -126.70647 34161 ft 495 kts 287°
2026-04-11 00:12 65.26835 -126.86655 34164 ft 495 kts 286°
2026-04-11 00:13 65.28227 -127.02749 34156 ft 495 kts 286°
2026-04-11 00:13 65.29582 -127.18930 34145 ft 495 kts 285°
2026-04-11 00:14 65.30894 -127.35004 34135 ft 493 kts 285°
2026-04-11 00:14 65.32182 -127.51071 34127 ft 494 kts 285°
2026-04-11 00:15 65.33360 -127.66037 34120 ft 494 kts 285°
2026-04-11 00:15 65.34656 -127.82766 34123 ft 494 kts 285°
2026-04-11 00:16 65.35892 -127.98985 34109 ft 494 kts 285°
2026-04-11 00:16 65.37107 -128.15170 34109 ft 494 kts 285°
2026-04-11 00:17 65.38299 -128.31294 34114 ft 493 kts 285°
2026-04-11 00:17 65.39481 -128.47533 34116 ft 492 kts 285°
2026-04-11 00:18 65.40633 -128.63625 34105 ft 491 kts 285°
2026-04-11 00:18 65.41779 -128.79869 34087 ft 493 kts 285°
2026-04-11 00:19 65.42893 -128.95943 34082 ft 492 kts 285°
2026-04-11 00:19 65.44001 -129.12169 34088 ft 493 kts 285°
2026-04-11 00:20 65.45091 -129.28398 34100 ft 493 kts 285°
2026-04-11 00:20 65.46162 -129.44650 34098 ft 491 kts 285°
2026-04-11 00:21 65.47203 -129.60712 34091 ft 490 kts 285°
2026-04-11 00:21 65.48235 -129.76881 34092 ft 491 kts 284°
2026-04-11 00:22 65.49249 -129.93080 34065 ft 490 kts 285°
2026-04-11 00:22 65.50246 -130.09297 34060 ft 489 kts 285°
2026-04-11 00:23 65.51221 -130.25424 34064 ft 489 kts 285°
2026-04-11 00:23 65.52186 -130.41702 34055 ft 487 kts 285°
2026-04-11 00:24 65.53121 -130.57773 34052 ft 486 kts 285°
2026-04-11 00:24 65.54042 -130.73903 34020 ft 486 kts 285°
2026-04-11 00:25 65.54948 -130.90089 34037 ft 486 kts 285°
2026-04-11 00:25 65.55828 -131.06143 34054 ft 482 kts 285°
2026-04-11 00:26 65.56694 -131.22218 34039 ft 483 kts 285°
2026-04-11 00:26 65.57547 -131.38405 34028 ft 484 kts 285°
2026-04-11 00:27 65.58377 -131.54504 34006 ft 484 kts 285°
2026-04-11 00:27 65.59193 -131.70639 34019 ft 483 kts 284°
2026-04-11 00:28 65.59984 -131.86633 34020 ft 484 kts 284°
2026-04-11 00:28 65.60764 -132.02789 34023 ft 484 kts 284°
2026-04-11 00:29 65.61528 -132.18962 34007 ft 481 kts 284°
2026-04-11 00:29 65.62268 -132.34978 33985 ft 483 kts 284°
2026-04-11 00:30 65.62994 -132.51099 33985 ft 480 kts 284°
2026-04-11 00:30 65.63704 -132.67235 33955 ft 481 kts 283°
2026-04-11 00:31 65.64390 -132.83217 33956 ft 478 kts 283°
2026-04-11 00:31 65.65064 -132.99312 33970 ft 480 kts 284°
2026-04-11 00:32 65.65720 -133.15389 33999 ft 482 kts 283°
2026-04-11 00:32 65.66359 -133.31500 33992 ft 478 kts 283°
2026-04-11 00:33 65.66976 -133.47467 34013 ft 479 kts 283°
2026-04-11 00:33 65.67582 -133.63576 34010 ft 480 kts 283°
2026-04-11 00:34 65.68170 -133.79710 33994 ft 479 kts 282°
2026-04-11 00:34 65.68737 -133.95726 34006 ft 477 kts 282°
2026-04-11 00:35 65.69286 -134.11711 34019 ft 477 kts 282°
2026-04-11 00:35 65.69823 -134.27817 34005 ft 479 kts 282°
2026-04-11 00:36 65.70341 -134.43884 33995 ft 477 kts 282°
2026-04-11 00:36 65.70843 -134.59988 34015 ft 477 kts 282°
2026-04-11 00:37 65.71328 -134.76083 34027 ft 480 kts 281°
2026-04-11 00:37 65.71790 -134.92044 34043 ft 479 kts 281°
2026-04-11 00:38 65.72240 -135.08101 34049 ft 478 kts 281°
2026-04-11 00:38 65.72669 -135.24036 34058 ft 480 kts 280°
2026-04-11 00:39 65.73081 -135.39986 34035 ft 479 kts 280°
2026-04-11 00:39 65.73483 -135.56139 34010 ft 479 kts 280°
2026-04-11 00:40 65.73862 -135.72116 34015 ft 482 kts 279°
2026-04-11 00:40 65.74230 -135.88347 34012 ft 480 kts 279°
2026-04-11 00:41 65.74579 -136.04483 34034 ft 480 kts 279°
2026-04-11 00:41 65.74913 -136.20712 34022 ft 481 kts 278°
2026-04-11 00:42 65.75230 -136.36942 34011 ft 481 kts 278°
2026-04-11 00:42 65.75531 -136.53276 33991 ft 482 kts 278°
2026-04-11 00:43 65.75812 -136.69455 34007 ft 483 kts 277°
2026-04-11 00:43 65.76079 -136.85834 34019 ft 482 kts 277°
2026-04-11 00:44 65.76326 -137.02075 34009 ft 482 kts 277°
2026-04-11 00:44 65.76558 -137.18424 34017 ft 481 kts 277°
2026-04-11 00:45 65.76771 -137.34685 34016 ft 483 kts 276°
2026-04-11 00:45 65.76968 -137.51039 34026 ft 483 kts 276°
2026-04-11 00:46 65.77145 -137.67246 34020 ft 483 kts 275°
2026-04-11 00:46 65.77306 -137.83537 34009 ft 483 kts 275°
2026-04-11 00:47 65.77451 -137.99922 33989 ft 483 kts 275°
2026-04-11 00:47 65.77578 -138.16232 33987 ft 483 kts 275°
2026-04-11 00:48 65.77688 -138.32686 33991 ft 483 kts 275°
2026-04-11 00:48 65.77780 -138.48991 33968 ft 483 kts 274°
2026-04-11 00:49 65.77854 -138.65334 33956 ft 483 kts 273°
2026-04-11 00:49 65.77911 -138.81602 33959 ft 483 kts 273°
2026-04-11 00:50 65.77950 -138.97890 33975 ft 483 kts 273°
2026-04-11 00:50 65.77973 -139.14278 33975 ft 483 kts 273°
2026-04-11 00:51 65.77978 -139.30585 33955 ft 483 kts 273°
2026-04-11 00:51 65.77966 -139.46890 33948 ft 482 kts 273°
2026-04-11 00:52 65.77936 -139.63167 33951 ft 483 kts 272°
2026-04-11 00:52 65.77888 -139.79579 33982 ft 482 kts 272°
2026-04-11 00:53 65.77824 -139.95842 33965 ft 482 kts 271°
2026-04-11 00:53 65.77741 -140.12183 33945 ft 482 kts 271°
2026-04-11 00:54 65.77642 -140.28459 33934 ft 483 kts 271°
2026-04-11 00:54 65.77526 -140.44598 33951 ft 483 kts 271°
2026-04-11 00:55 65.77391 -140.61038 33987 ft 484 kts 271°
2026-04-11 00:55 65.77239 -140.77414 34000 ft 484 kts 270°
2026-04-11 00:56 65.77039 -140.93826 33999 ft 485 kts 266°
2026-04-11 00:56 65.76042 -141.10161 34023 ft 486 kts 262°
2026-04-11 00:57 65.74872 -141.26266 34034 ft 486 kts 262°
2026-04-11 00:57 65.73640 -141.42442 34030 ft 486 kts 261°
2026-04-11 00:58 65.72372 -141.58598 34011 ft 487 kts 261°
2026-04-11 00:58 65.71081 -141.74663 34026 ft 486 kts 259°
2026-04-11 00:59 65.69757 -141.90843 34024 ft 486 kts 259°
2026-04-11 00:59 65.68421 -142.06909 34020 ft 486 kts 259°
2026-04-11 01:00 65.67065 -142.22977 34036 ft 486 kts 259°
2026-04-11 01:00 65.65702 -142.38886 34035 ft 487 kts 259°
2026-04-11 01:01 65.64310 -142.54932 34020 ft 486 kts 259°
2026-04-11 01:01 65.62902 -142.70937 34017 ft 485 kts 258°
2026-04-11 01:02 65.61488 -142.86804 34010 ft 485 kts 258°
2026-04-11 01:02 65.60043 -143.02815 34000 ft 485 kts 257°
2026-04-11 01:03 65.58591 -143.18692 34002 ft 484 kts 257°
2026-04-11 01:03 65.57119 -143.34602 34028 ft 483 kts 257°
2026-04-11 01:04 65.55646 -143.50319 34029 ft 483 kts 257°
2026-04-11 01:04 65.54141 -143.66173 34039 ft 484 kts 256°
2026-04-11 01:05 65.52634 -143.81879 34053 ft 484 kts 256°
2026-04-11 01:05 65.51090 -143.97760 34048 ft 484 kts 256°
2026-04-11 01:06 65.49547 -144.13452 34059 ft 484 kts 256°
2026-04-11 01:06 65.47985 -144.29141 34055 ft 484 kts 256°
2026-04-11 01:07 65.46403 -144.44861 34059 ft 485 kts 255°
2026-04-11 01:07 65.44819 -144.60429 33775 ft 470 kts 255°
2026-04-11 01:07 65.44033 -144.68094 32709 ft 466 kts 254°
2026-04-11 01:08 65.43263 -144.75552 31807 ft 458 kts 254°
2026-04-11 01:08 65.42506 -144.82848 31161 ft 454 kts 254°
2026-04-11 01:08 65.41738 -144.90218 30502 ft 451 kts 254°
2026-04-11 01:08 65.40978 -144.97467 30070 ft 444 kts 254°
2026-04-11 01:09 65.39485 -145.11603 29135 ft 441 kts 254°
2026-04-11 01:09 65.38712 -145.18852 28636 ft 451 kts 254°
2026-04-11 01:09 65.37936 -145.26114 28123 ft 449 kts 254°
2026-04-11 01:10 65.37161 -145.33318 27623 ft 444 kts 254°
2026-04-11 01:10 65.36397 -145.40401 27118 ft 438 kts 254°
2026-04-11 01:10 65.35638 -145.47395 26607 ft 432 kts 254°
2026-04-11 01:10 65.34877 -145.54376 26102 ft 427 kts 254°
2026-04-11 01:11 65.34132 -145.61182 25598 ft 421 kts 254°
2026-04-11 01:11 65.33389 -145.67938 25099 ft 416 kts 253°
2026-04-11 01:11 65.32654 -145.74587 24610 ft 411 kts 253°
2026-04-11 01:11 65.31928 -145.81125 24107 ft 406 kts 253°
2026-04-11 01:12 65.31206 -145.87602 23636 ft 401 kts 253°
2026-04-11 01:12 65.30483 -145.94052 23138 ft 397 kts 253°
2026-04-11 01:12 65.29774 -146.00356 22649 ft 392 kts 253°
2026-04-11 01:12 65.29064 -146.06632 22171 ft 390 kts 253°
2026-04-11 01:13 65.28337 -146.13026 21669 ft 403 kts 253°
2026-04-11 01:13 65.27603 -146.19457 21130 ft 402 kts 253°
2026-04-11 01:13 65.26878 -146.25801 20615 ft 398 kts 253°
2026-04-11 01:13 65.26142 -146.32196 20099 ft 394 kts 253°
2026-04-11 01:14 65.25423 -146.38431 19631 ft 388 kts 254°
2026-04-11 01:14 65.24709 -146.44592 19109 ft 383 kts 254°
2026-04-11 01:14 65.23990 -146.50763 18630 ft 378 kts 254°
2026-04-11 01:14 65.23292 -146.56734 18167 ft 374 kts 254°
2026-04-11 01:15 65.22588 -146.62723 17677 ft 370 kts 254°
2026-04-11 01:15 65.21905 -146.68526 17211 ft 366 kts 253°
2026-04-11 01:15 65.21213 -146.74379 16734 ft 362 kts 253°
2026-04-11 01:15 65.20534 -146.80095 16177 ft 361 kts 253°
2026-04-11 01:16 65.19849 -146.85849 15653 ft 358 kts 253°
2026-04-11 01:16 65.19165 -146.91560 15147 ft 355 kts 253°
2026-04-11 01:16 65.18490 -146.97189 14667 ft 351 kts 254°
2026-04-11 01:16 65.17664 -147.02617 14208 ft 347 kts 245°
2026-04-11 01:17 65.16469 -147.07526 13734 ft 345 kts 236°
2026-04-11 01:17 65.14952 -147.12009 12889 ft 351 kts 231°
2026-04-11 01:17 65.13368 -147.16353 12003 ft 353 kts 231°
2026-04-11 01:17 65.11742 -147.20770 11140 ft 353 kts 230°
2026-04-11 01:18 65.10107 -147.25093 10313 ft 351 kts 230°
2026-04-11 01:18 65.08485 -147.29312 9494 ft 349 kts 230°
2026-04-11 01:18 65.06859 -147.33472 8570 ft 342 kts 229°
2026-04-11 01:18 65.05274 -147.37463 8324 ft 317 kts 229°
2026-04-11 01:19 65.03846 -147.41341 7390 ft 316 kts 237°
2026-04-11 01:19 65.02644 -147.45688 6474 ft 314 kts 237°
2026-04-11 01:19 65.01240 -147.49506 5840 ft 307 kts 225°
2026-04-11 01:19 64.99636 -147.52641 5467 ft 293 kts 221°
2026-04-11 01:20 64.98058 -147.55553 4974 ft 284 kts 221°
2026-04-11 01:20 64.96524 -147.58391 4463 ft 277 kts 221°
2026-04-11 01:20 64.95007 -147.61215 3772 ft 277 kts 221°
2026-04-11 01:20 64.93519 -147.63989 3366 ft 265 kts 221°
2026-04-11 01:21 64.92154 -147.66563 3031 ft 245 kts 221°
2026-04-11 01:21 64.90861 -147.69026 2703 ft 228 kts 220°
2026-04-11 01:21 64.89664 -147.71274 2405 ft 212 kts 219°
2026-04-11 01:21 64.88543 -147.73328 2101 ft 196 kts 219°
2026-04-11 01:22 64.87520 -147.75218 1809 ft 182 kts 219°
2026-04-11 01:22 64.86556 -147.77000 1552 ft 162 kts 219°
2026-04-11 01:22 64.85719 -147.78548 1336 ft 149 kts 219°
2026-04-11 01:22 64.84911 -147.80049 1115 ft 145 kts 218°
2026-04-11 01:23 64.84124 -147.81490 884 ft 142 kts 217°
2026-04-11 01:23 64.83346 -147.82928 650 ft 141 kts 217°
2026-04-11 01:23 64.82587 -147.84317 471 ft 135 kts 217°
2026-04-11 01:23 64.81937 -147.85504 447 ft 97 kts 218°
2026-04-11 01:24 64.81484 -147.86345 446 ft 72 kts 217°
2026-04-11 01:24 64.81239 -147.86793 444 ft 26 kts 219°
2026-04-11 01:24 64.81170 -147.86963 443 ft 10 kts 254°
2026-04-11 01:24 64.81189 -147.87105 445 ft 8 kts 303°
2026-04-11 01:25 64.81181 -147.87225 446 ft 10 kts 224°
2026-04-11 01:25 64.81099 -147.87378 445 ft 20 kts 219°
2026-04-11 01:25 64.80968 -147.87617 446 ft 26 kts 218°
2026-04-11 01:25 64.80824 -147.87891 447 ft 26 kts 218°
2026-04-11 01:26 64.80683 -147.88144 444 ft 20 kts 218°
2026-04-11 01:26 64.80564 -147.88368 442 ft 23 kts 218°
2026-04-11 01:26 64.80469 -147.88550 440 ft 18 kts 220°
2026-04-11 01:26 64.80394 -147.88681 438 ft 13 kts 213°
2026-04-11 01:27 64.80363 -147.88847 438 ft 10 kts 296°
2026-04-11 01:27 64.80417 -147.89015 439 ft 14 kts 308°
2026-04-11 01:27 64.80462 -147.89195 440 ft 9 kts 272°
2026-04-11 01:27 64.80425 -147.89307 439 ft 10 kts 219°
2026-04-11 01:28 64.80376 -147.89372 437 ft 8 kts 180°
2026-04-11 01:28 64.80334 -147.89296 437 ft 8 kts 127°
2026-04-11 01:28 64.80318 -147.89250 437 ft 0 kts 128°